When you browse on this site, cookies collect data to enhance your experience and personalize the content and advertising you see.
Visit our Privacy Policy to learn more. By continuing to use the site, you agree to this use of cookies and data.
  • In Portugal
  • List of Countries
  • For 7 days
  • Water Temperature
  • Weather Map
  • Weather Widgets
  • user-avatar
    Login

    Hourly Weather Elbasan

    Today, 23 October, Wednesday

    Time Temperature Precipitation Wind Pressure Humidity
    00:00 +19°C° 0 mm 2 mps 739 mmHg 46%
    01:00 +18°C° 0 mm 2 mps 739 mmHg 47%
    02:00 +18°C° 0 mm 2 mps 739 mmHg 47%
    03:00 +18°C° 0 mm 2 mps 739 mmHg 48%
    04:00 +18°C° 0 mm 2 mps 739 mmHg 49%
    05:00 +18°C° 0 mm 2 mps 739 mmHg 49%
    06:00 +18°C° 0 mm 2 mps 739 mmHg 49%
    07:00 +19°C° 0 mm 2 mps 739 mmHg 48%
    08:00 +21°C° 0 mm 2 mps 739 mmHg 42%
    09:00 +25°C° 0 mm 1 mps 739 mmHg 36%
    10:00 +27°C° 0 mm 1 mps 739 mmHg 29%
    11:00 +28°C° 0 mm 1 mps 739 mmHg 27%
    12:00 +29°C° 0 mm 2 mps 739 mmHg 25%
    13:00 +29°C° 0 mm 2 mps 738 mmHg 23%
    14:00 +28°C° 0 mm 2 mps 738 mmHg 27%
    15:00 +27°C° 0 mm 1 mps 738 mmHg 32%
    16:00 +26°C° 0 mm 1 mps 738 mmHg 37%
    17:00 +24°C° 0 mm 1 mps 738 mmHg 39%
    18:00 +22°C° 0 mm 1 mps 738 mmHg 41%
    19:00 +21°C° 0 mm 1 mps 738 mmHg 43%
    20:00 +20°C° 0 mm 1 mps 738 mmHg 42%
    21:00 +19°C° 0 mm 2 mps 738 mmHg 41%
    22:00 +18°C° 0 mm 2 mps 738 mmHg 41%
    23:00 +18°C° 0 mm 2 mps 738 mmHg 40%

    Tomorrow, 24 October, Thursday

    Time Temperature Precipitation Wind Pressure Humidity
    00:00 +18°C° 0 mm 2 mps 738 mmHg 40%
    01:00 +17°C° 0 mm 2 mps 738 mmHg 39%
    02:00 +17°C° 0 mm 2 mps 738 mmHg 39%
    03:00 +17°C° 0 mm 2 mps 737 mmHg 39%
    04:00 +17°C° 0 mm 2 mps 737 mmHg 39%
    05:00 +17°C° 0 mm 2 mps 737 mmHg 39%
    06:00 +17°C° 0 mm 2 mps 737 mmHg 39%
    07:00 +17°C° 0 mm 2 mps 737 mmHg 40%
    08:00 +21°C° 0 mm 1 mps 738 mmHg 34%
    09:00 +24°C° 0 mm 1 mps 738 mmHg 29%
    10:00 +27°C° 0 mm 1 mps 738 mmHg 23%
    11:00 +27°C° 0 mm 1 mps 737 mmHg 22%
    12:00 +28°C° 0 mm 1 mps 737 mmHg 21%
    13:00 +29°C° 0 mm 2 mps 737 mmHg 20%
    14:00 +27°C° 0 mm 2 mps 736 mmHg 26%
    15:00 +26°C° 0 mm 1 mps 736 mmHg 32%
    16:00 +25°C° 0 mm 1 mps 735 mmHg 37%
    17:00 +23°C° 0 mm 1 mps 735 mmHg 41%
    18:00 +21°C° 0 mm 1 mps 735 mmHg 44%
    19:00 +20°C° 0 mm 1 mps 736 mmHg 48%
    20:00 +19°C° 0 mm 1 mps 736 mmHg 48%
    21:00 +19°C° 0 mm 1 mps 736 mmHg 47%
    22:00 +19°C° 0 mm 1 mps 736 mmHg 47%
    23:00 +18°C° 0 mm 1 mps 736 mmHg 46%

    Day after tomorrow, 25 October, Friday

    Time Temperature Precipitation Wind Pressure Humidity
    00:00 +18°C° 0 mm 1 mps 736 mmHg 44%
    01:00 +18°C° 0 mm 1 mps 736 mmHg 43%
    02:00 +18°C° 0 mm 1 mps 736 mmHg 43%
    03:00 +16°C° 0 mm 1 mps 735 mmHg 42%
    04:00 +16°C° 0 mm 1 mps 735 mmHg 41%
    05:00 +16°C° 0 mm 1 mps 736 mmHg 41%
    06:00 +18°C° 0 mm 1 mps 736 mmHg 41%
    07:00 +18°C° 0 mm 1 mps 736 mmHg 41%
    08:00 +21°C° 0 mm 1 mps 736 mmHg 37%
    09:00 +23°C° 0 mm 1 mps 736 mmHg 32%
    10:00 +25°C° 0 mm 1 mps 737 mmHg 27%
    11:00 +26°C° 0 mm 1 mps 737 mmHg 26%
    12:00 +27°C° 0 mm 1 mps 736 mmHg 25%
    13:00 +28°C° 0 mm 2 mps 736 mmHg 24%
    14:00 +26°C° 0 mm 2 mps 736 mmHg 30%
    15:00 +25°C° 0 mm 1 mps 736 mmHg 36%
    16:00 +23°C° 0 mm 1 mps 736 mmHg 42%
    17:00 +22°C° 0 mm 1 mps 736 mmHg 45%
    18:00 +21°C° 0 mm 1 mps 736 mmHg 48%
    19:00 +19°C° 0 mm 1 mps 737 mmHg 51%
    20:00 +19°C° 0 mm 1 mps 737 mmHg 49%
    21:00 +19°C° 0 mm 1 mps 738 mmHg 48%
    22:00 +19°C° 0 mm 1 mps 738 mmHg 47%
    23:00 +18°C° 0 mm 1 mps 738 mmHg 47%

    26 October, Saturday

    Time Temperature Precipitation Wind Pressure Humidity
    00:00 +18°C° 0 mm 1 mps 738 mmHg 46%
    01:00 +18°C° 0 mm 1 mps 738 mmHg 46%
    02:00 +16°C° 0 mm 1 mps 738 mmHg 46%
    03:00 +16°C° 0 mm 2 mps 738 mmHg 46%
    04:00 +16°C° 0 mm 2 mps 738 mmHg 46%
    05:00 +16°C° 0 mm 2 mps 738 mmHg 45%
    06:00 +17°C° 0 mm 2 mps 738 mmHg 44%
    07:00 +17°C° 0 mm 2 mps 739 mmHg 44%
    08:00 +20°C° 0 mm 2 mps 739 mmHg 38%
    09:00 +24°C° 0 mm 1 mps 739 mmHg 32%
    10:00 +26°C° 0 mm 1 mps 740 mmHg 26%
    11:00 +27°C° 0 mm 1 mps 740 mmHg 25%
    12:00 +28°C° 0 mm 2 mps 739 mmHg 24%
    13:00 +28°C° 0 mm 2 mps 739 mmHg 23%
    14:00 +27°C° 0 mm 2 mps 739 mmHg 28%
    15:00 +26°C° 0 mm 2 mps 739 mmHg 34%
    16:00 +24°C° 0 mm 1 mps 738 mmHg 40%
    17:00 +22°C° 0 mm 1 mps 739 mmHg 43%
    18:00 +21°C° 0 mm 1 mps 739 mmHg 46%
    19:00 +19°C° 0 mm 1 mps 739 mmHg 49%
    20:00 +19°C° 0 mm 1 mps 739 mmHg 48%
    21:00 +19°C° 0 mm 1 mps 739 mmHg 46%
    22:00 +19°C° 0 mm 1 mps 739 mmHg 45%
    23:00 +18°C° 0 mm 1 mps 739 mmHg 45%

    27 October, Sunday

    Time Temperature Precipitation Wind Pressure Humidity
    00:00 +18°C° 0 mm 1 mps 739 mmHg 44%
    01:00 +17°C° 0 mm 2 mps 739 mmHg 44%
    02:00 +16°C° 0 mm 2 mps 739 mmHg 44%
    03:00 +16°C° 0 mm 2 mps 739 mmHg 45%
    04:00 +16°C° 0 mm 2 mps 739 mmHg 45%
    05:00 +16°C° 0 mm 2 mps 739 mmHg 45%
    06:00 +17°C° 0 mm 2 mps 739 mmHg 45%
    07:00 +17°C° 0 mm 2 mps 739 mmHg 44%
    08:00 +21°C° 0 mm 1 mps 739 mmHg 38%
    09:00 +23°C° 0 mm 1 mps 739 mmHg 33%
    10:00 +26°C° 0 mm 1 mps 739 mmHg 27%
    11:00 +27°C° 0 mm 1 mps 739 mmHg 25%
    12:00 +27°C° 0 mm 2 mps 738 mmHg 24%
    13:00 +28°C° 0 mm 2 mps 738 mmHg 23%
    14:00 +27°C° 0 mm 2 mps 738 mmHg 29%
    15:00 +25°C° 0 mm 2 mps 737 mmHg 35%
    16:00 +24°C° 0 mm 1 mps 737 mmHg 41%
    17:00 +22°C° 0 mm 1 mps 737 mmHg 45%
    18:00 +20°C° 0 mm 1 mps 737 mmHg 49%
    19:00 +19°C° 0 mm 1 mps 737 mmHg 54%
    20:00 +18°C° 0 mm 1 mps 737 mmHg 52%
    21:00 +18°C° 0 mm 1 mps 737 mmHg 50%
    22:00 +18°C° 0 mm 1 mps 737 mmHg 49%
    23:00 +18°C° 0 mm 1 mps 736 mmHg 47%

    28 October, Monday

    Time Temperature Precipitation Wind Pressure Humidity
    00:00 +16°C° 0 mm 1 mps 736 mmHg 46%
    01:00 +16°C° 0 mm 1 mps 736 mmHg 45%
    02:00 +16°C° 0 mm 1 mps 736 mmHg 44%
    03:00 +16°C° 0 mm 1 mps 735 mmHg 44%
    04:00 +15°C° 0 mm 1 mps 735 mmHg 43%
    05:00 +16°C° 0 mm 1 mps 735 mmHg 42%
    06:00 +16°C° 0 mm 1 mps 735 mmHg 41%
    07:00 +16°C° 0 mm 1 mps 735 mmHg 41%
    08:00 +20°C° 0 mm 1 mps 735 mmHg 36%
    09:00 +22°C° 0 mm 1 mps 735 mmHg 32%
    10:00 +25°C° 0 mm 1 mps 735 mmHg 27%
    11:00 +25°C° 0 mm 1 mps 735 mmHg 28%
    12:00 +26°C° 0 mm 2 mps 734 mmHg 28%
    13:00 +26°C° 0 mm 2 mps 734 mmHg 28%
    14:00 +25°C° 0 mm 2 mps 734 mmHg 34%
    15:00 +24°C° 0 mm 2 mps 733 mmHg 40%
    16:00 +21°C° 0 mm 2 mps 733 mmHg 46%
    17:00 +21°C° 0 mm 1 mps 733 mmHg 54%
    18:00 +19°C° 0 mm 1 mps 733 mmHg 61%
    19:00 +15°C° 0 mm 0 mps 734 mmHg 69%
    20:00 +15°C° 0 mm 0 mps 734 mmHg 68%
    21:00 +15°C° 0 mm 1 mps 734 mmHg 68%
    22:00 +15°C° 0 mm 1 mps 734 mmHg 67%
    23:00 +15°C° 0 mm 1 mps 734 mmHg 66%

    29 October, Tuesday

    Time Temperature Precipitation Wind Pressure Humidity
    00:00 +15°C° 0 mm 1 mps 734 mmHg 65%
    01:00 +14°C° 0 mm 1 mps 734 mmHg 63%
    02:00 +14°C° 0 mm 1 mps 734 mmHg 61%
    03:00 +14°C° 0 mm 1 mps 734 mmHg 59%
    04:00 +14°C° 0 mm 1 mps 733 mmHg 57%
    05:00 +14°C° 0 mm 1 mps 734 mmHg 54%
    06:00 +14°C° 0 mm 1 mps 734 mmHg 51%
    07:00 +15°C° 0 mm 1 mps 734 mmHg 47%
    08:00 +18°C° 0 mm 1 mps 734 mmHg 42%
    09:00 +20°C° 0 mm 1 mps 734 mmHg 37%
    10:00 +23°C° 0 mm 1 mps 735 mmHg 31%
    11:00 +23°C° 0 mm 1 mps 734 mmHg 29%
    12:00 +24°C° 0 mm 2 mps 734 mmHg 28%
    13:00 +25°C° 0 mm 2 mps 734 mmHg 26%
    14:00 +23°C° 0 mm 2 mps 734 mmHg 32%
    15:00 +21°C° 0 mm 2 mps 734 mmHg 37%
    16:00 +20°C° 0 mm 2 mps 733 mmHg 43%
    17:00 +19°C° 0 mm 1 mps 734 mmHg 50%
    18:00 +18°C° 0 mm 1 mps 734 mmHg 57%
    19:00 +14°C° 0 mm 0 mps 734 mmHg 64%
    20:00 +15°C° 0 mm 1 mps 734 mmHg 64%
    21:00 +14°C° 0 mm 1 mps 734 mmHg 63%
    22:00 +14°C° 0 mm 1 mps 734 mmHg 63%
    23:00 +14°C° 0 mm 1 mps 734 mmHg 60%
    Show more